Showing default

GJZ 03, 62292

Orbit data source: Space-Track

GJZ 03, 62292 is a payload satellite owned by CASC (CN) in LEO that was launched on Thu, 12 Dec 2024 UTC via a CHANG ZHENG 2D/YZ-3 launch vehicle from the Jiuquan Satellite Launch Center, China (JSC). Payload-class satellites include a variety of spacecraft equipped with specific instruments for various scientific and technological missions. These include communications satellites like Starlink; space stations such as the ISS; scientific satellites like the Hubble; Earth observation satellites from companies like Planet Labs, Umbra, and HawkEye 360; GPS; miniature CubeSats for education and research; and military/defense satellites.

Loading next visibility...
Identifier
62292, 2024-238C
Orbit
LEO
Country
Flag of CNCN / PRC
Related business
Manufacturer
HITSAT
Mission
Operational Civil Communications
Bus & Motor
HARBFLAT, Unknown motor
Mass
~150 kg wet, ~150 kg dry
Launch date (UTC)
2024-12-12 (1 year ago)
Launch vehicle
CHANG ZHENG 2D/YZ-3
Launch site
Jiuquan Satellite Launch Center, China (JSC)
Object type
Payload
Rocket body
Debris
Shape & HBR
Box + 2 Pan, 1.5 m
Radar Cross Section
0.240 m², Large (>1 m²)

Expand to show TLE details & history
Last TLE update: 5 hours ago

TLE from 5 hours ago
0 GJZ 03
1 62292U 24238C   26036.31071446  .00000035  00000-0  15975-3 0  9991
2 62292  59.9149 310.1756 0013792 219.0672 140.9341 13.75186572 57753
Epoch: 2026-02-05T07:27Z
TLE epoch observation values (Epoch: 2026-02-05T07:27:25.729Z)
Latitude
0.00001°
Longitude
62.85363°
Altitude
990.381 km
Speed
7.353 km/s
True Right ascension
20h 40m 42s
True Declination
0° 00' 00"
Sunlit
Object was in daylight at epoch
Visualization orbit readout
Latitude
Unknown
Longitude
Unknown
Altitude
Unknown
Speed
Unknown
Apparent Right ascension
Unknown
Apparent Declination
Unknown
Sunlit
N/A
Visualization observer readout
Local Sidereal Time
14:57:15
Azimuth
Unknown
Elevation
Unknown
Doppler factor
Unknown
Orbital elements
Apogee altitude
990.426 km
Perigee altitude
970.128 km
Semi-major axis
7,358.414 km
Eccentricity
0.00138
Inclination
59.9149°
RAAN
310.1756°
Arg. of periapsis
219.0672°
True anomaly
141.03357°
Mean anomaly
140.9341°
Eccentric anomaly
140.98385°
Mean motion
3.43848 °/min
Orbital period
104.7 mins
BSTAR
0.00015975
Loading maneuver chart data...
Computing Atmospheric mass density...
Loading historical data...
Loading historical data...
Loading historical data...
Loading historical data...
Loading historical data...
Loading historical data...
Loading historical data...
Other satellites on launch #238 in the year 2024 (2024-12-12 UTC)

Documentation

Showing up to 5 results
|